| time (UTC) | temp C | wind direction | speed KPH | gust KPH | rain 1hr cm | rain 24hr cm | rain mn cm | humidity % | barometer mb |
| 20260906213039 | 15 | 325 | 0.0 | 0.0 | 0.00 | 0.00 | 0.00 | 90 | 1023.5 |
| 20260906210845 | 15 | 325 | 0.0 | 0.0 | 0.00 | 0.00 | 0.00 | 89 | 1023.6 |
| 20260906203031 | 15 | 325 | 0.0 | 0.0 | 0.00 | 0.00 | 0.00 | 88 | 1023.4 |
| 20260906200032 | 16 | 325 | 0.0 | 0.0 | 0.00 | 0.00 | 0.00 | 87 | 1023.4 |
| 20260906193032 | 16 | 325 | 0.0 | 0.0 | 0.00 | 0.00 | 0.00 | 86 | 1023.2 |
| 20260906190047 | 16 | 325 | 0.0 | 0.0 | 0.00 | 0.00 | 0.00 | 82 | 1023.0 |
| 20260906184538 | 17 | 325 | 0.0 | 0.0 | 0.00 | 0.00 | 0.00 | 82 | 1022.8 |
| 20260906181604 | 18 | 325 | 0.0 | 0.0 | 0.00 | 0.00 | 0.00 | 79 | 1022.5 |
| 20260906174540 | 19 | 325 | 0.0 | 0.0 | 0.00 | 0.00 | 0.00 | 75 | 1022.1 |
| 20260906173038 | 20 | 325 | 0.0 | 0.0 | 0.00 | 0.00 | 0.00 | 74 | 1022.0 |
| 20260906170045 | 21 | 325 | 0.0 | 0.0 | 0.00 | 0.00 | 0.00 | 69 | 1021.8 |
| 20260906163047 | 23 | 325 | 0.0 | 3.2 | 0.00 | 0.00 | 0.00 | 61 | 1021.4 |
| 20260906161527 | 25 | 325 | 0.0 | 3.2 | 0.00 | 0.00 | 0.00 | 58 | 1021.5 |
| 20260906154539 | 25 | 327 | 0.0 | 4.8 | 0.00 | 0.00 | 0.00 | 56 | 1021.4 |
| 20260906152301 | 26 | 327 | 0.0 | 3.2 | 0.00 | 0.00 | 0.00 | 54 | 1021.3 |
| 20260906150035 | 26 | 328 | 0.0 | 6.4 | 0.00 | 0.00 | 0.00 | 54 | 1021.5 |
| 20260906143032 | 26 | 322 | 0.0 | 4.8 | 0.00 | 0.00 | 0.00 | 54 | 1021.5 |
| 20260906140037 | 25 | 273 | 1.6 | 9.7 | 0.00 | 0.00 | 0.00 | 56 | 1021.5 |
| 20260906133053 | 25 | 317 | 3.2 | 8.0 | 0.00 | 0.00 | 0.00 | 57 | 1021.5 |
| 20260906131527 | 26 | 11 | 0.0 | 6.4 | 0.00 | 0.00 | 0.00 | 57 | 1021.6 |
| 20260906124537 | 26 | 259 | 1.6 | 9.7 | 0.00 | 0.00 | 0.00 | 58 | 1021.7 |
| 20260906123035 | 25 | 238 | 3.2 | 8.0 | 0.00 | 0.00 | 0.00 | 57 | 1021.8 |
| 20260906120042 | 25 | 301 | 1.6 | 12.9 | 0.00 | 0.00 | 0.00 | 59 | 1021.8 |
| 20260906114539 | 25 | 259 | 1.6 | 8.0 | 0.00 | 0.00 | 0.00 | 61 | 1021.7 |
| 20260906111600 | 25 | 249 | 4.8 | 8.0 | 0.00 | 0.00 | 0.00 | 62 | 1021.7 |
| 20260906110032 | 25 | 247 | 3.2 | 8.0 | 0.00 | 0.00 | 0.00 | 60 | 1021.7 |
| 20260906104533 | 24 | 263 | 0.0 | 6.4 | 0.00 | 0.00 | 0.00 | 64 | 1021.7 |
| 20260906101535 | 23 | 268 | 1.6 | 9.7 | 0.00 | 0.00 | 0.00 | 66 | 1021.8 |
| 20260906094541 | 22 | 246 | 0.0 | 12.9 | 0.00 | 0.00 | 0.00 | 69 | 1022.2 |
| 20260906091544 | 21 | 234 | 4.8 | 11.3 | 0.00 | 0.00 | 0.00 | 69 | 1022.4 |
| 20260906084540 | 21 | 228 | 1.6 | 8.0 | 0.00 | 0.00 | 0.00 | 72 | 1022.4 |
| 20260906083039 | 20 | 228 | 1.6 | 6.4 | 0.00 | 0.00 | 0.00 | 73 | 1022.4 |
| 20260906081535 | 20 | 228 | 0.0 | 0.0 | 0.00 | 0.00 | 0.00 | 74 | 1022.4 |
| 20260906080035 | 20 | 228 | 0.0 | 0.0 | 0.00 | 0.00 | 0.00 | 75 | 1022.5 |
| 20260906073039 | 19 | 228 | 0.0 | 0.0 | 0.00 | 0.00 | 0.00 | 81 | 1022.5 |
| 20260906071526 | 17 | 228 | 0.0 | 0.0 | 0.00 | 0.00 | 0.00 | 87 | 1022.2 |
| 20260906064533 | 16 | 228 | 0.0 | 0.0 | 0.00 | 0.00 | 0.00 | 95 | 1022.3 |
| 20260906061538 | 14 | 228 | 0.0 | 0.0 | 0.00 | 0.00 | 0.00 | 96 | 1022.0 |
| 20260906054544 | 13 | 228 | 0.0 | 0.0 | 0.00 | 0.00 | 0.00 | 95 | 1021.9 |
| 20260906051553 | 13 | 228 | 0.0 | 0.0 | 0.00 | 0.00 | 0.00 | 95 | 1021.5 |
| 20260906044538 | 13 | 228 | 0.0 | 0.0 | 0.00 | 0.00 | 0.00 | 94 | 1021.2 |
| 20260906043044 | 13 | 228 | 0.0 | 0.0 | 0.00 | 0.00 | 0.00 | 94 | 1021.1 |
| 20260906040041 | 13 | 228 | 0.0 | 0.0 | 0.00 | 0.00 | 0.00 | 94 | 1020.9 |
| 20260906034532 | 13 | 228 | 0.0 | 0.0 | 0.00 | 0.00 | 0.00 | 94 | 1020.8 |
| 20260906031531 | 13 | 228 | 0.0 | 0.0 | 0.00 | 0.00 | 0.00 | 94 | 1020.7 |
| 20260906024538 | 13 | 228 | 0.0 | 0.0 | 0.00 | 0.00 | 0.00 | 94 | 1020.6 |
| 20260906021540 | 14 | 228 | 0.0 | 0.0 | 0.00 | 0.00 | 0.00 | 94 | 1020.7 |
| 20260906020048 | 14 | 228 | 0.0 | 0.0 | 0.00 | 0.00 | 0.00 | 93 | 1020.5 |
| 20260906013825 | 14 | 228 | 0.0 | 0.0 | 0.00 | 0.00 | 0.00 | 92 | 1020.5 |
| 20260906011544 | 15 | 228 | 0.0 | 0.0 | 0.00 | 0.00 | 0.00 | 92 | 1020.4 |
| 20260906004531 | 15 | 228 | 0.0 | 0.0 | 0.00 | 0.00 | 0.00 | 91 | 1020.4 |
| 20260906001527 | 16 | 228 | 0.0 | 0.0 | 0.00 | 0.00 | 0.00 | 91 | 1020.4 |
| 20260905234535 | 16 | 228 | 0.0 | 0.0 | 0.00 | 0.00 | 0.00 | 90 | 1020.3 |
| 20260905231535 | 17 | 228 | 0.0 | 0.0 | 0.00 | 0.00 | 0.00 | 88 | 1020.3 |
| 20260905224528 | 17 | 228 | 0.0 | 0.0 | 0.00 | 0.00 | 0.00 | 88 | 1020.1 |
| 20260905223026 | 17 | 228 | 0.0 | 0.0 | 0.00 | 0.00 | 0.00 | 88 | 1020.1 |
| 20260905220108 | 17 | 228 | 0.0 | 0.0 | 0.00 | 0.00 | 0.00 | 88 | 1019.9 |